Lexington Weather

Lexington, Massachusetts, USA

56°F
10/22/2020 8:20pm 
  • Lexington Conditions: Mostly cloudy
  • Temperature: 55.8°F / 13.2°C 
  • Dew Point: 54.3°F 
  • Relative Humidity: 95
  • Wind: Calm, 10-min avg: Calm, gust: None
  • Barometer: 30.22 in Steady
  • Visibility: 7 miles
  • Rain Today: 0.00 in
  •   
Southeast Middlesex County - Special Weather Statement
 - SEE ALL NEARBY ALERTS -

Regional Weather Roundup
for Boston / Norton, MA

        
000
ASUS41 KBOX 160904
RWRBOX

REGIONAL WEATHER ROUNDUP
NATIONAL WEATHER SERVICE BOSTON/NORTON MA
500 AM EDT FRI OCT 16 2020

NOTE:  "FAIR" INDICATES FEW OR NO CLOUDS BELOW 12,000 FEET WITH NO 
SIGNIFICANT WEATHER AND/OR OBSTRUCTIONS TO VISIBILITY.

MAZALL-161000-
EASTERN MASSACHUSETTS
  
CITY           SKY/WX    TMP DP  RH WIND       PRES   REMARKS
BOSTON         CLOUDY    61  60  97 S8        30.02R                  
BEVERLY        MOCLDY    61  59  93 S5        30.01S                  
LAWRENCE       CLOUDY    62  60  93 S5        30.03R                  
BEDFORD        MOCLDY    61  60  97 S5        30.00R                  
BLUE HILL        N/A     61  60  97 S15       30.01R                  
NORWOOD        CLOUDY    64  60  87 S3        30.01R                  
MARSHFIELD     MOCLDY    64  64 100 S8        30.03S                  
PLYMOUTH       CLEAR     64  60  87 S7        30.04R                  
TAUNTON        LGT RAIN  66  62  87 VRB3      30.02S                  
NEW BEDFORD    CLOUDY    67  63  87 S14       30.02F                  
$$

MAZALL-161000-
CAPE COD AND THE ISLANDS
  
CITY           SKY/WX    TMP DP  RH WIND       PRES   REMARKS
FALMOUTH       MOCLDY    63  63 100 S14       30.06S                  
HYANNIS        CLEAR     64  61  90 S9        30.05S                  
CHATHAM        CLEAR     61  58  90 S10G18    30.09R                  
PROVINCETOWN   CLEAR     62  60  93 S12G20    30.06S                  
NANTUCKET      CLEAR    N/A N/A N/A S15       30.08S                  
MARTHAS VNYRD  CLEAR     64  62  93 S13G22    30.06S                  
$$
 
MAZALL-161000-
CENTRAL AND WESTERN MASSACHUSETTS
  
CITY           SKY/WX    TMP DP  RH WIND       PRES   REMARKS
WORCESTER      CLOUDY    61  59  93 S8        30.01S                  
FITCHBURG      MOCLDY    61  59  93 SE6       30.00S                  
ORANGE         CLOUDY    63  60  90 S8        29.98S                  
SPRINGFIELD    CLOUDY    64  60  87 S7        29.96S                  
WESTFIELD      CLOUDY    63  61  93 S8        29.97R                  
NORTH ADAMS    CLOUDY    54  50  86 W6        30.01R FOG              
PITTSFIELD     LGT RAIN  53  50  89 W7        29.99R                  
$$
 
RIZALL-161000-
RHODE ISLAND
  
CITY           SKY/WX    TMP DP  RH WIND       PRES   REMARKS
PROVIDENCE     CLOUDY    65  63  93 S6        30.03R                  
NEWPORT        CLOUDY    65  63  93 S13       30.03R                  
BLOCK ISLAND   MOCLDY    65  62  90 S17G23    30.03S                  
SMITHFIELD     CLOUDY    64  64 100 VRB5        N/A                   
WESTERLY       CLOUDY    66  62  87 S12       30.02S                  
$$
 
CTZALL-161000-
CONNECTICUT
  
CITY           SKY/WX    TMP DP  RH WIND       PRES   REMARKS
BRADLEY INTL   MOCLDY    63  60  90 S6        29.97R                  
HARTFORD       CLOUDY    66  61  84 S6        29.98R                  
BRIDGEPORT     CLOUDY    66  63  90 SW10      29.98R                  
DANBURY        CLOUDY    64  62  93 S7        29.99R                  
GROTON         PTCLDY    66  63  90 S13       30.00S                  
NEW HAVEN      MOCLDY    67  64  90 SW3       29.99R                  
CHESTER        CLOUDY    66  64  94 S7        30.01R                  
MERIDEN        CLOUDY    65  61  87 S5        29.99R                  
WILLIMANTIC    CLOUDY    61  59  93 S3        30.00S                  
OXFORD         CLOUDY    63  63 100 S7        30.00R                  
$$

MEZ002-015-021-024-NHZ003-005-008-011-012-014-VTZ005-008-161000-
NORTHERN NEW ENGLAND
  
CITY           SKY/WX    TMP DP  RH WIND       PRES   REMARKS
PORTLAND ME    CLOUDY    59  58  96 S8        30.01S                  
BANGOR ME      CLOUDY    59  55  87 S10       30.03S                  
CONCORD NH     CLOUDY    59  56  89 S8        29.98S                  
MANCHESTER NH  PTCLDY    61  58  90 S9        29.98S                  
NASHUA NH      MOCLDY    57  57 100 SE3       30.00S                  
PORTSMOUTH NH  CLOUDY    61  60  94 CALM      29.99                   
JAFFREY NH     CLOUDY    62  57  83 S7        29.99S                  
KEENE NH       CLOUDY    61  58  90 CALM      29.97S                  
BURLINGTON VT  LGT RAIN  53  50  89 NE3       30.00R                  
MT. WASHINGTON FOG       41  41 100 W38         N/A  VSB 0   WCI  29  
$$

NYZ052-076-161000-
EASTERN NEW YORK
  
CITY           SKY/WX    TMP DP  RH WIND       PRES   REMARKS
ALBANY         LGT RAIN  50  50 100 W6        30.03R FOG              
NEW YORK CITY  MOCLDY    64  60  87 S6        29.97R                  
$$
 
ANZALL-161000-
MARINE OBSERVATIONS
  
STATION/POSITION TIME  TEMP    WIND        PRES    VSBY  WAVE
                       AIR SEA DIR/SP/G                  HT/PER
                 (UTC) (F)     (DEG/KT/KT) (MB)    (MI)  (FT/S)
BOSTON BUOY      0850   60 58  140/ 14/ 14 1015.6S         3/ 9
BUZZARDS BAY     0800          180/ 21/ 22 1017.6F
NANTUCKET SOUND  0850      62  170/ 16/ 19   N/A           2/ 3
MASS BAY-STELLWA 0804   61 58  160/ 16/ 19 1015.8S  1 7/8  4/ 8
ISLE OF SHOALS   0800   59     180/ 14/ 16 1015.6F
S OF BLOCK IS    0826      64                N/A           4/ 6
$$

......................KEY.........................
  SKY/WX - SKY CONDITION/PRESENT WEATHER
  TMP    - TEMPERATURE IN FAHRENHEIT
  DWPT   - DEWPOINT IN FAHRENHEIT
  RH     - RELATIVE HUMIDITY IN PERCENT
  WIND   - DIRECTION AND SPEED IN MPH
  PRES   - MEAN SEA LEVEL PRESSURE IN INCHES OF HG
  WCI    - WIND CHILL INDEX
  VSB    - VISIBILITY IN MILES
  HX     - HEAT INDEX
  TC     - TEMPERATURE IN CELSIUS
  VRB    - VARIABLE WIND DIRECTION
  N/A    - NOT AVAILABLE
  
      

Other recent Regional Weather Roundups

Thu Oct 22, 8:04pm

Thu Oct 22, 7:05pm

Thu Oct 22, 6:04pm

Thu Oct 22, 5:04pm

Thu Oct 22, 4:05pm

Thu Oct 22, 3:04pm

Thu Oct 22, 2:05pm

Thu Oct 22, 1:04pm

Thu Oct 22, 12:04pm

Thu Oct 22, 11:04am

Thu Oct 22, 10:05am

Thu Oct 22, 9:04am

Thu Oct 22, 8:05am

Thu Oct 22, 7:04am

Thu Oct 22, 6:04am

Thu Oct 22, 5:04am

Thu Oct 22, 4:04am

Thu Oct 22, 3:04am

Thu Oct 22, 2:04am

Thu Oct 22, 1:04am

Thu Oct 22, 12:04am

Wed Oct 21, 11:05pm

Wed Oct 21, 10:04pm

Wed Oct 21, 9:04pm

Wed Oct 21, 8:04pm

Wed Oct 21, 7:04pm

Wed Oct 21, 6:04pm

Wed Oct 21, 5:05pm

Wed Oct 21, 4:04pm

Wed Oct 21, 3:04pm

Wed Oct 21, 2:05pm

Wed Oct 21, 1:04pm

Wed Oct 21, 12:04pm

Wed Oct 21, 11:04am

Wed Oct 21, 10:04am

Wed Oct 21, 9:04am

Wed Oct 21, 8:04am

Wed Oct 21, 7:04am

Wed Oct 21, 6:04am

Wed Oct 21, 5:04am

Wed Oct 21, 4:04am

Wed Oct 21, 3:04am

Wed Oct 21, 2:04am

Wed Oct 21, 1:04am

Wed Oct 21, 12:04am

Tue Oct 20, 11:05pm

Tue Oct 20, 10:04pm

Tue Oct 20, 9:04pm

Tue Oct 20, 8:05pm

Tue Oct 20, 7:04pm

Tue Oct 20, 6:04pm

Tue Oct 20, 5:05pm

Tue Oct 20, 4:04pm

Tue Oct 20, 3:05pm

Tue Oct 20, 2:07pm

Tue Oct 20, 1:04pm

Tue Oct 20, 12:04pm

Tue Oct 20, 11:04am

Tue Oct 20, 10:05am

Tue Oct 20, 9:04am

Tue Oct 20, 8:04am

Tue Oct 20, 7:04am

Tue Oct 20, 6:04am

Tue Oct 20, 5:04am

Tue Oct 20, 4:04am

Tue Oct 20, 3:04am

Tue Oct 20, 2:04am

Tue Oct 20, 1:04am

Tue Oct 20, 12:04am

Mon Oct 19, 11:04pm

Mon Oct 19, 10:04pm

Mon Oct 19, 9:04pm

Mon Oct 19, 8:04pm

Mon Oct 19, 7:04pm

Mon Oct 19, 6:04pm

Mon Oct 19, 5:04pm

Mon Oct 19, 4:04pm

Mon Oct 19, 3:04pm

Mon Oct 19, 2:04pm

Mon Oct 19, 1:05pm

Mon Oct 19, 12:04pm

Mon Oct 19, 11:04am

Mon Oct 19, 10:04am

Mon Oct 19, 9:04am

Mon Oct 19, 8:04am

Mon Oct 19, 7:04am

Mon Oct 19, 6:04am

Mon Oct 19, 5:04am

Mon Oct 19, 4:04am

Mon Oct 19, 3:04am

Mon Oct 19, 2:04am

Mon Oct 19, 1:04am

Mon Oct 19, 12:05am

Sun Oct 18, 11:04pm

Sun Oct 18, 10:04pm

Sun Oct 18, 9:04pm

Sun Oct 18, 8:04pm

Sun Oct 18, 7:05pm

Sun Oct 18, 6:04pm

Sun Oct 18, 5:05pm

Sun Oct 18, 4:05pm

Sun Oct 18, 3:04pm

Sun Oct 18, 2:05pm

Sun Oct 18, 1:04pm

Sun Oct 18, 12:04pm

Sun Oct 18, 11:04am

Sun Oct 18, 10:04am

Sun Oct 18, 9:04am

Sun Oct 18, 8:04am

Sun Oct 18, 7:04am

Sun Oct 18, 6:04am

Sun Oct 18, 5:04am

Sun Oct 18, 4:04am

Sun Oct 18, 3:04am

Sun Oct 18, 2:04am

Sun Oct 18, 1:04am

Sun Oct 18, 12:04am

Sat Oct 17, 11:05pm

Sat Oct 17, 10:04pm

Sat Oct 17, 9:04pm

Sat Oct 17, 8:04pm

Sat Oct 17, 7:04pm

Sat Oct 17, 6:04pm

Sat Oct 17, 5:05pm

Sat Oct 17, 4:04pm

Sat Oct 17, 3:04pm

Sat Oct 17, 2:05pm

Sat Oct 17, 1:05pm

Sat Oct 17, 12:04pm

Sat Oct 17, 11:05am

Sat Oct 17, 10:04am

Sat Oct 17, 9:04am

Sat Oct 17, 8:04am

Sat Oct 17, 7:04am

Sat Oct 17, 6:04am

Sat Oct 17, 5:04am

Sat Oct 17, 4:04am

Sat Oct 17, 3:04am

Sat Oct 17, 2:04am

Sat Oct 17, 1:05am

Sat Oct 17, 12:04am

Fri Oct 16, 11:05pm

Fri Oct 16, 10:04pm

Fri Oct 16, 9:05pm

Fri Oct 16, 8:04pm

Fri Oct 16, 7:05pm

Fri Oct 16, 6:04pm

Fri Oct 16, 5:04pm

Fri Oct 16, 4:05pm

Fri Oct 16, 3:04pm

Fri Oct 16, 2:04pm

Fri Oct 16, 1:04pm

Fri Oct 16, 12:04pm

Fri Oct 16, 11:05am

Fri Oct 16, 10:04am

Fri Oct 16, 9:04am

Fri Oct 16, 8:04am

Fri Oct 16, 7:04am

Fri Oct 16, 6:04am

Fri Oct 16, 4:04am

Fri Oct 16, 3:04am

Fri Oct 16, 2:04am

Fri Oct 16, 1:04am

Fri Oct 16, 12:04am

Thu Oct 15, 11:04pm

Thu Oct 15, 10:04pm

Thu Oct 15, 9:05pm

Meta data:

ID: 683f6a8b-9150-4214-84f8-5b96cfd4e99e
Link: https://api.weather.gov/products/683f6a8b-9150-4214-84f8-5b96cfd4e99e